Miscellaneous Local Product
Issued by NWS Hastings, NE

Home | Current Version | Previous Version | Text Only | Print | Product List | Glossary On
Versions: 1 2 3 4 5 6 7 8 9 10 11 12 13 14 15 16 17 18 19 20 21 22 23 24 25 26 27 28 29 30 31 32 33 34 35 36 37 38 39 40 41 42 43 44 45 46 47 48 49 50
000
AXUS43 KGID 301402
MISGRI

GID CWA HOURLY WEATHER ROUNDUP
NATIONAL WEATHER SERVICE HASTINGS NE
900 AM CDT THU JUL 30 2015

NOTE: "FAIR" INDICATES FEW OR NO CLOUDS BELOW 12,000 FEET WITH NO
SIGNIFICANT WEATHER AND/OR OBSTRUCTIONS TO VISIBILITY.

...SOUTH CENTRAL NEBRASKA...

CITY           SKY/WX    TMP DP  RH WIND       PRES   REMARKS
GRAND ISLAND   SUNNY     74  61  63 SW12      30.23S
HASTINGS       SUNNY     71  61  70 S7        30.25R
KEARNEY        SUNNY     70  57  64 S8        30.25S
ORD            SUNNY     71  59  65 W6        30.22R
YORK           SUNNY     66  63  88 SW7       30.22S
AURORA         SUNNY     70  65  83 SW8       30.23R
LEXINGTON      SUNNY     68  61  79 S5        30.26R
HOLDREGE       SUNNY     69  60  71 SW6       30.26R
HEBRON         SUNNY     67  61  80 CALM      30.24S

...NEBRASKA PANHANDLE...

CITY           SKY/WX    TMP DP  RH WIND       PRES   REMARKS
CHADRON        SUNNY     61  52  72 W3        30.28R
ALLIANCE       SUNNY     67  54  63 S6        30.29R
SCOTTSBLUFF    SUNNY     67  54  63 NE5       30.30R
SIDNEY         SUNNY     69  60  73 SW12      30.32R

...WESTERN AND NORTH CENTRAL NEBRASKA...

CITY           SKY/WX    TMP DP  RH WIND       PRES   REMARKS
VALENTINE      SUNNY     70  54  56 SW8       30.21F
AINSWORTH      SUNNY     71  56  59 SW7       30.23S
ONEILL         MOSUNNY   70  58  66 W7        30.24R
BROKEN BOW     SUNNY     70  60  70 W5        30.25R
IMPERIAL       SUNNY     67  55  65 CALM      30.28R
NORTH PLATTE   SUNNY     68  58  70 CALM      30.27R
MCCOOK         SUNNY     68  60  75 CALM      30.27R

...EASTERN NEBRASKA...

CITY           SKY/WX    TMP DP  RH WIND       PRES   REMARKS
NORFOLK        SUNNY     70  58  65 W6        30.21R
SO SIOUX CITY  SUNNY     72  58  61 W8        30.17R
TEKAMAH        SUNNY     72  62  71 S5        30.18S
COLUMBUS       SUNNY     70  55  60 W5        30.21S
ALBION         SUNNY     70  58  65 W5        30.21S
OMAHA EPPLEY   MOSUNNY   74  60  61 SW3       30.20R
OFFUTT AFB     SUNNY     72  61  68 W5        30.20R
MILLARD        SUNNY     71  62  72 CALM      30.20S HAZE
LINCOLN        SUNNY     72  61  68 W6        30.22R
NEBRASKA CITY  SUNNY     70  61  73 W5        30.22R
BEATRICE       SUNNY     67  62  85 CALM      30.23R
FALLS CITY     SUNNY     71  66  84 SW3       30.22R

...NORTHERN KANSAS...

CITY           SKY/WX    TMP DP  RH WIND       PRES   REMARKS
GOODLAND       SUNNY     69  64  84 S9        30.30R
HILL CITY      PTSUNNY   71  63  75 CALM      30.28R
NORTON         SUNNY     72  63  73 SE8       30.26S
PHILLIPSBURG   SUNNY     72  63  73 CALM      30.26S HAZE
SMITH CENTER   SUNNY     72  61  68 SE7       30.26S HAZE
HAYS           CLOUDY    72  59  64 E8        30.27R
RUSSELL        PTSUNNY   73  65  75 E7        30.25R
CONCORDIA      SUNNY     73  65  75 SE3       30.25R
SALINA         PTSUNNY   73  66  78 CALM      30.25R
TOPEKA         MOSUNNY   73  68  84 CALM      30.23R



USA.gov is the U.S. government's official web portal to all federal, state and local government web resources and services.